FW9813 Weather Reports


time (UTC)temp
C
wind
direction
speed
KPH
gust
KPH
rain 1hr
cm
rain 24hr
cm
rain mn
cm
humidity
%
barometer
mb
20260503190043 19 205 6.4 24.1 0.00 0.00 0.00 28 1006.7
20260503184541 19 184 6.4 22.5 0.00 0.00 0.00 28 1006.7
20260503183053 19 232 8.0 25.7 0.00 0.00 0.00 29 1006.8
20260503181554 19 195 6.4 24.1 0.00 0.00 0.00 32 1006.8
20260503180041 18 248 8.0 24.1 0.00 0.00 0.00 33 1007.0
20260503174543 18 345 8.0 24.1 0.00 0.00 0.00 33 1007.1
20260503173047 18 206 12.9 30.6 0.00 0.00 0.00 34 1007.1
20260503171540 18 267 9.7 22.5 0.00 0.00 0.00 32 1007.3
20260503081541 12 0 0.0 4.8 0.00 0.00 0.00 55 1004.7
20260503071552 12 0 0.0 4.8 0.00 0.00 0.00 56 1005.1
20260503054546 13 121 1.6 12.9 0.00 0.00 0.00 53 1006.2
20260503053043 13 57 0.0 3.2 0.00 0.00 0.00 51 1006.2
20260503051544 13 0 0.0 3.2 0.00 0.00 0.00 51 1006.8
20260503050042 13 98 0.0 4.8 0.00 0.00 0.00 50 1007.0
20260503044543 13 88 0.0 3.2 0.00 0.00 0.00 49 1007.1
20260503043043 13 0 0.0 3.2 0.00 0.00 0.00 48 1007.2
20260503041540 14 0 0.0 3.2 0.00 0.00 0.00 47 1007.3
20260503040043 14 92 0.0 4.8 0.00 0.00 0.00 47 1007.5
20260503034541 15 0 0.0 3.2 0.00 0.00 0.00 47 1007.7
20260503033046 15 76 0.0 4.8 0.00 0.00 0.00 47 1008.1
20260503031539 15 76 0.0 6.4 0.00 0.00 0.00 47 1008.3
20260503030037 15 84 0.0 3.2 0.00 0.00 0.00 48 1008.6
20260503024544 15 71 0.0 3.2 0.00 0.00 0.00 47 1008.8
20260503023041 15 0 0.0 3.2 0.00 0.00 0.00 47 1008.9
20260503021540 15 0 0.0 3.2 0.00 0.00 0.00 47 1009.3
20260503020040 15 159 0.0 3.2 0.00 0.00 0.00 46 1009.5
20260503014542 16 0 0.0 6.4 0.00 0.00 0.00 45 1009.7
20260503013052 16 111 0.0 8.0 0.00 0.00 0.00 42 1009.8
20260503011547 16 138 3.2 14.5 0.00 0.00 0.00 39 1010.0
20260503010112 17 158 4.8 12.9 0.00 0.00 0.00 37 1010.1
20260503004541 17 200 4.8 25.7 0.00 0.00 0.00 35 1009.9
20260503003038 17 182 3.2 11.3 0.00 0.00 0.00 35 1009.9
20260503001548 17 0 1.6 14.5 0.00 0.00 0.00 36 1009.9
20260503000047 17 170 3.2 12.9 0.00 0.00 0.00 36 1010.0
20260502234546 17 178 3.2 12.9 0.00 0.00 0.00 37 1010.1
20260502233043 17 105 3.2 12.9 0.00 0.00 0.00 35 1010.2
20260502231540 18 188 1.6 14.5 0.00 0.00 0.00 36 1010.3
20260502230040 18 196 4.8 14.5 0.00 0.00 0.00 35 1010.6
20260502224541 18 186 3.2 11.3 0.00 0.00 0.00 37 1010.4
20260502223038 18 0 0.0 4.8 0.00 0.00 0.00 38 1010.6
20260502221547 18 141 1.6 8.0 0.00 0.00 0.00 36 1010.7
20260502220043 18 135 0.0 6.4 0.00 0.00 0.00 37 1010.9
20260502214551 18 88 1.6 4.8 0.00 0.00 0.00 36 1011.1
20260502213041 18 167 1.6 11.3 0.00 0.00 0.00 35 1011.2
20260502211556 18 207 3.2 11.3 0.00 0.00 0.00 34 1011.5
20260502210051 19 178 3.2 12.9 0.00 0.00 0.00 35 1011.7
20260502204543 19 0 3.2 19.3 0.00 0.00 0.00 33 1011.9
20260502203055 19 160 4.8 19.3 0.00 0.00 0.00 35 1012.3
20260502201547 18 225 3.2 12.9 0.00 0.00 0.00 37 1012.8
20260502200042 18 161 6.4 20.9 0.00 0.00 0.00 35 1013.1
20260502194540 17 140 3.2 8.0 0.00 0.00 0.00 38 1013.2
20260502193046 17 150 1.6 14.5 0.00 0.00 0.00 35 1013.8
20260502191544 18 0 4.8 16.1 0.00 0.00 0.00 38 1014.0